Weather in Ross-on-Wye

United Kingdom     51°54′54″N   2°34′54″W
temp.,
°C
wind,
m/s
gust,
m/s
humid.,
%
clouds,
%
prec.,
mm/h
press.,
hPa
HPBL,
m
24 july, sat
sat2401:00+14ne51086100 0.0 1012431
04:00+14ne51183100 0.0 1010500
07:00+14ne51183100 0.0 1010582
10:00+16ene61083100 0.6 1009691
13:00+19e6773100 0.8 10091049
16:00+18ene2788100 0.9 1009491
19:00+17ne3889100 1.5 1008385
22:00+16ne5991100 1.3 1009336
25 july, sun
sun2501:00+14n369580 1.6 1009171
04:00+13n3797100 0.1 1009219
07:00+14n379596 0.6 1009328
10:00+17n448290 0.0 1009662
13:00+19nne3468100 0.1 10091038
16:00+21nw2460100 0.0 10091294
19:00+22nnw135997 0.0 10081228
22:00+16w11770 0.0 101011
26 july, mon
mon2601:00+13nw11850 0.0 101010
04:00+12nw11880 0.0 101010
07:00+14wnw11844 0.0 101163
10:00+19w23614 0.0 1011552
13:00+24w345293 0.0 10091640
16:00+23w5566100 1.7 10091150
19:00+20wsw477999 3.8 1009278
22:00+17sw228780 0.6 101019
27 july, tue
tue2701:00+15sw1190100 0.6 100910
04:00+13w119343 0.1 100910
07:00+15nw118960 0.1 100953
10:00+20sw11725 0.0 1009616
13:00+22sw335725 0.6 10091344
16:00+22wsw336580 2.4 1008879
19:00+19wsw4680100 5.1 1007299
22:00+15wnw4892100 2.3 1008253
28 july, wed
wed2801:00+14wsw3691100 2.3 1008148
04:00+13sw389223 0.0 1007303
07:00+13sw4109133 0.0 1006381
10:00+17sw7107275 0.3 10061242
13:00+18sw9116814 2.3 10051470
16:00+19sw9126012 0.9 10051595
19:00+15wsw813791 2.2 10051180
22:00+12sw512824 0.1 1006452